owner,sensor,date,latitude,longitude,air_pressure(mBar),qcFlag 
TABS,ioos:station:wmo:42043:1,2008-11-01T00:00:00Z,28.9818,-94.9186,1027.5,11111222 
TABS,ioos:station:wmo:42043:1,2008-11-01T00:30:00Z,28.9818,-94.9186,1027.63,11111222 
TABS,ioos:station:wmo:42043:1,2008-11-01T01:00:00Z,28.9818,-94.9186,1027.53,11111222 
TABS,ioos:station:wmo:42043:1,2008-11-01T01:30:00Z,28.9818,-94.9186,1027.47,11111222 
TABS,ioos:station:wmo:42043:1,2008-11-01T02:00:00Z,28.9818,-94.9186,1027.37,11111222 
TABS,ioos:station:wmo:42043:1,2008-11-01T02:30:00Z,28.9818,-94.9186,1027.38,11111222 
TABS,ioos:station:wmo:42043:1,2008-11-01T03:00:00Z,28.9818,-94.9186,1027.54,11111222 
TABS,ioos:station:wmo:42043:1,2008-11-01T03:30:00Z,28.9818,-94.9186,1027.54,11111222 
TABS,ioos:station:wmo:42043:1,2008-11-01T04:00:00Z,28.9818,-94.9186,1027.48,11111222 
TABS,ioos:station:wmo:42043:1,2008-11-01T04:30:00Z,28.9818,-94.9186,1027.48,11111222 
TABS,ioos:station:wmo:42043:1,2008-11-01T05:00:00Z,28.9818,-94.9186,1027.11,11111222 
TABS,ioos:station:wmo:42043:1,2008-11-01T05:30:00Z,28.9818,-94.9186,1027.07,11111222 
TABS,ioos:station:wmo:42043:1,2008-11-01T06:00:00Z,28.9818,-94.9186,1026.95,11111222 
TABS,ioos:station:wmo:42043:1,2008-11-01T06:30:00Z,28.9818,-94.9186,1026.88,11111222 
TABS,ioos:station:wmo:42043:1,2008-11-01T07:00:00Z,28.9818,-94.9186,1026.84,11111222 
TABS,ioos:station:wmo:42043:1,2008-11-01T07:30:00Z,28.9818,-94.9186,1026.65,11111222 
TABS,ioos:station:wmo:42043:1,2008-11-01T08:00:00Z,28.9818,-94.9186,1026.56,11111222 
TABS,ioos:station:wmo:42043:1,2008-11-01T08:30:00Z,28.9818,-94.9186,1026.42,11111222 
TABS,ioos:station:wmo:42043:1,2008-11-01T09:00:00Z,28.9818,-94.9186,1026.36,11111222 
TABS,ioos:station:wmo:42043:1,2008-11-01T09:30:00Z,28.9818,-94.9186,1026.26,11111222 
TABS,ioos:station:wmo:42043:1,2008-11-01T10:00:00Z,28.9818,-94.9186,1026.23,11111222 
TABS,ioos:station:wmo:42043:1,2008-11-01T10:30:00Z,28.9818,-94.9186,1026.19,11111222 
TABS,ioos:station:wmo:42043:1,2008-11-01T11:00:00Z,28.9818,-94.9186,1026.11,11111222 
TABS,ioos:station:wmo:42043:1,2008-11-01T11:30:00Z,28.9818,-94.9186,1025.94,11111222 
TABS,ioos:station:wmo:42043:1,2008-11-01T12:00:00Z,28.9818,-94.9186,1026.21,11111222 
TABS,ioos:station:wmo:42043:1,2008-11-01T12:30:00Z,28.9818,-94.9186,1026.5,11111222 
TABS,ioos:station:wmo:42043:1,2008-11-01T13:00:00Z,28.9818,-94.9186,1026.59,11111222 
TABS,ioos:station:wmo:42043:1,2008-11-01T13:30:00Z,28.9818,-94.9186,1026.99,11111222 
TABS,ioos:station:wmo:42043:1,2008-11-01T14:00:00Z,28.9818,-94.9186,1027.22,11111222 
TABS,ioos:station:wmo:42043:1,2008-11-01T14:30:00Z,28.9818,-94.9186,1027.34,11111222 
TABS,ioos:station:wmo:42043:1,2008-11-01T15:00:00Z,28.9818,-94.9186,1027.46,11111222 
TABS,ioos:station:wmo:42043:1,2008-11-01T15:30:00Z,28.9818,-94.9186,1027.63,11111222 
TABS,ioos:station:wmo:42043:1,2008-11-01T16:00:00Z,28.9818,-94.9186,1027.66,11111222 
TABS,ioos:station:wmo:42043:1,2008-11-01T16:30:00Z,28.9818,-94.9186,1027.53,11111222 
TABS,ioos:station:wmo:42043:1,2008-11-01T17:00:00Z,28.9818,-94.9186,1027.2,11111222 
TABS,ioos:station:wmo:42043:1,2008-11-01T17:30:00Z,28.9818,-94.9186,1026.91,11111222 
TABS,ioos:station:wmo:42043:1,2008-11-01T18:00:00Z,28.9818,-94.9186,1026.44,11111222 
TABS,ioos:station:wmo:42043:1,2008-11-01T18:30:00Z,28.9818,-94.9186,1026.03,11111222 
TABS,ioos:station:wmo:42043:1,2008-11-01T19:00:00Z,28.9818,-94.9186,1025.58,11111222 
TABS,ioos:station:wmo:42043:1,2008-11-01T19:30:00Z,28.9818,-94.9186,1025.21,11111222 
TABS,ioos:station:wmo:42043:1,2008-11-01T20:00:00Z,28.9818,-94.9186,1024.86,11111222 
TABS,ioos:station:wmo:42043:1,2008-11-01T20:30:00Z,28.9818,-94.9186,1024.47,11111222 
TABS,ioos:station:wmo:42043:1,2008-11-01T21:00:00Z,28.9818,-94.9186,1024.18,11111222 
TABS,ioos:station:wmo:42043:1,2008-11-01T21:30:00Z,28.9818,-94.9186,1024.11,11111222 
TABS,ioos:station:wmo:42043:1,2008-11-01T22:00:00Z,28.9818,-94.9186,1023.98,11111222 
TABS,ioos:station:wmo:42043:1,2008-11-01T22:30:00Z,28.9818,-94.9186,1023.8,11111222 
TABS,ioos:station:wmo:42043:1,2008-11-01T23:00:00Z,28.9818,-94.9186,1023.71,11111222 
TABS,ioos:station:wmo:42043:1,2008-11-01T23:30:00Z,28.9818,-94.9186,1023.97,11111222 
TABS,ioos:station:wmo:42043:1,2008-11-02T00:00:00Z,28.9818,-94.9186,1024.23,11111222 
TABS,ioos:station:wmo:42043:1,2008-11-02T00:30:00Z,28.9818,-94.9186,1024.23,11111222 
TABS,ioos:station:wmo:42043:1,2008-11-02T01:00:00Z,28.9818,-94.9186,1024.37,11111222 
TABS,ioos:station:wmo:42043:1,2008-11-02T01:30:00Z,28.9818,-94.9186,1024.46,11111222 
TABS,ioos:station:wmo:42043:1,2008-11-02T02:00:00Z,28.9818,-94.9186,1024.63,11111222 
TABS,ioos:station:wmo:42043:1,2008-11-02T02:30:00Z,28.9818,-94.9186,1024.63,11111222 
TABS,ioos:station:wmo:42043:1,2008-11-02T03:00:00Z,28.9818,-94.9186,1024.69,11111222 
TABS,ioos:station:wmo:42043:1,2008-11-02T03:30:00Z,28.9818,-94.9186,1024.67,11111222 
TABS,ioos:station:wmo:42043:1,2008-11-02T04:00:00Z,28.9818,-94.9186,1024.56,11111222 
TABS,ioos:station:wmo:42043:1,2008-11-02T04:30:00Z,28.9818,-94.9186,1024.3,11111222 
TABS,ioos:station:wmo:42043:1,2008-11-02T05:00:00Z,28.9818,-94.9186,1024.07,11111222 
TABS,ioos:station:wmo:42043:1,2008-11-02T05:30:00Z,28.9818,-94.9186,1023.92,11111222 
TABS,ioos:station:wmo:42043:1,2008-11-02T06:00:00Z,28.9818,-94.9186,1023.7,11111222 
TABS,ioos:station:wmo:42043:1,2008-11-02T06:30:00Z,28.9818,-94.9186,1023.45,11111222 
TABS,ioos:station:wmo:42043:1,2008-11-02T07:00:00Z,28.9818,-94.9186,1023.26,11111222 
TABS,ioos:station:wmo:42043:1,2008-11-02T07:30:00Z,28.9818,-94.9186,1023.03,11111222 
TABS,ioos:station:wmo:42043:1,2008-11-02T08:00:00Z,28.9818,-94.9186,1022.92,11111222 
TABS,ioos:station:wmo:42043:1,2008-11-02T08:30:00Z,28.9818,-94.9186,1022.86,11111222 
TABS,ioos:station:wmo:42043:1,2008-11-02T09:00:00Z,28.9818,-94.9186,1022.73,11111222 
TABS,ioos:station:wmo:42043:1,2008-11-02T09:30:00Z,28.9818,-94.9186,1022.6,11111222 
TABS,ioos:station:wmo:42043:1,2008-11-02T10:00:00Z,28.9818,-94.9186,1022.39,11111222 
TABS,ioos:station:wmo:42043:1,2008-11-02T10:30:00Z,28.9818,-94.9186,1022.53,11111222 
TABS,ioos:station:wmo:42043:1,2008-11-02T11:00:00Z,28.9818,-94.9186,1022.57,11111222 
TABS,ioos:station:wmo:42043:1,2008-11-02T11:30:00Z,28.9818,-94.9186,1022.59,11111222 
TABS,ioos:station:wmo:42043:1,2008-11-02T12:00:00Z,28.9818,-94.9186,1022.78,11111222 
TABS,ioos:station:wmo:42043:1,2008-11-02T12:30:00Z,28.9818,-94.9186,1022.96,11111222 
TABS,ioos:station:wmo:42043:1,2008-11-02T13:00:00Z,28.9818,-94.9186,1023.16,11111222 
TABS,ioos:station:wmo:42043:1,2008-11-02T13:30:00Z,28.9818,-94.9186,1023.5,11111222 
TABS,ioos:station:wmo:42043:1,2008-11-02T14:00:00Z,28.9818,-94.9186,1023.79,11111222 
TABS,ioos:station:wmo:42043:1,2008-11-02T14:30:00Z,28.9818,-94.9186,1024.06,11111222 
TABS,ioos:station:wmo:42043:1,2008-11-02T15:00:00Z,28.9818,-94.9186,1024.12,11111222 
TABS,ioos:station:wmo:42043:1,2008-11-02T15:30:00Z,28.9818,-94.9186,1024.11,11111222 
TABS,ioos:station:wmo:42043:1,2008-11-02T16:00:00Z,28.9818,-94.9186,1024.03,11111222 
TABS,ioos:station:wmo:42043:1,2008-11-02T16:30:00Z,28.9818,-94.9186,1024.09,11111222 
TABS,ioos:station:wmo:42043:1,2008-11-02T17:00:00Z,28.9818,-94.9186,1023.81,11111222 
TABS,ioos:station:wmo:42043:1,2008-11-02T17:30:00Z,28.9818,-94.9186,1023.51,11111222 
TABS,ioos:station:wmo:42043:1,2008-11-02T18:00:00Z,28.9818,-94.9186,1023.19,11111222 
TABS,ioos:station:wmo:42043:1,2008-11-02T18:30:00Z,28.9818,-94.9186,1022.65,11111222 
TABS,ioos:station:wmo:42043:1,2008-11-02T19:00:00Z,28.9818,-94.9186,1022.24,11111222 
TABS,ioos:station:wmo:42043:1,2008-11-02T19:30:00Z,28.9818,-94.9186,1021.88,11111222 
TABS,ioos:station:wmo:42043:1,2008-11-02T20:00:00Z,28.9818,-94.9186,1021.51,11111222 
TABS,ioos:station:wmo:42043:1,2008-11-02T20:30:00Z,28.9818,-94.9186,1021.36,11111222 
TABS,ioos:station:wmo:42043:1,2008-11-02T21:00:00Z,28.9818,-94.9186,1021.29,11111222 
TABS,ioos:station:wmo:42043:1,2008-11-02T21:30:00Z,28.9818,-94.9186,1021.34,11111222 
TABS,ioos:station:wmo:42043:1,2008-11-02T22:00:00Z,28.9818,-94.9186,1021.32,11111222 
TABS,ioos:station:wmo:42043:1,2008-11-02T22:30:00Z,28.9818,-94.9186,1021.19,11111222 
TABS,ioos:station:wmo:42043:1,2008-11-02T23:00:00Z,28.9818,-94.9186,1021.14,11111222 
TABS,ioos:station:wmo:42043:1,2008-11-02T23:30:00Z,28.9818,-94.9186,1021.01,11111222 
TABS,ioos:station:wmo:42043:1,2008-11-03T00:00:00Z,28.9818,-94.9186,1021.18,11111222 
TABS,ioos:station:wmo:42043:1,2008-11-03T00:30:00Z,28.9818,-94.9186,1021.25,11111222 
TABS,ioos:station:wmo:42043:1,2008-11-03T01:00:00Z,28.9818,-94.9186,1021.36,11111222 
TABS,ioos:station:wmo:42043:1,2008-11-03T01:30:00Z,28.9818,-94.9186,1021.51,11111222 
TABS,ioos:station:wmo:42043:1,2008-11-03T02:00:00Z,28.9818,-94.9186,1021.7,11111222 
TABS,ioos:station:wmo:42043:1,2008-11-03T02:30:00Z,28.9818,-94.9186,1021.75,11111222 
TABS,ioos:station:wmo:42043:1,2008-11-03T03:00:00Z,28.9818,-94.9186,1021.92,11111222 
TABS,ioos:station:wmo:42043:1,2008-11-03T03:30:00Z,28.9818,-94.9186,1021.88,11111222 
TABS,ioos:station:wmo:42043:1,2008-11-03T04:00:00Z,28.9818,-94.9186,1021.72,11111222 
TABS,ioos:station:wmo:42043:1,2008-11-03T04:30:00Z,28.9818,-94.9186,1021.68,11111222 
TABS,ioos:station:wmo:42043:1,2008-11-03T05:00:00Z,28.9818,-94.9186,1021.62,11111222 
TABS,ioos:station:wmo:42043:1,2008-11-03T05:30:00Z,28.9818,-94.9186,1021.43,11111222 
TABS,ioos:station:wmo:42043:1,2008-11-03T06:00:00Z,28.9818,-94.9186,1021.43,11111222 
TABS,ioos:station:wmo:42043:1,2008-11-03T06:30:00Z,28.9818,-94.9186,1021.21,11111222 
TABS,ioos:station:wmo:42043:1,2008-11-03T07:00:00Z,28.9818,-94.9186,1021.17,11111222 
TABS,ioos:station:wmo:42043:1,2008-11-03T07:30:00Z,28.9818,-94.9186,1021.26,11111222 
TABS,ioos:station:wmo:42043:1,2008-11-03T08:00:00Z,28.9818,-94.9186,1020.97,11111222 
TABS,ioos:station:wmo:42043:1,2008-11-03T08:30:00Z,28.9818,-94.9186,1020.86,11111222 
TABS,ioos:station:wmo:42043:1,2008-11-03T09:00:00Z,28.9818,-94.9186,1020.68,11111222 
TABS,ioos:station:wmo:42043:1,2008-11-03T09:30:00Z,28.9818,-94.9186,1020.64,11111222 
TABS,ioos:station:wmo:42043:1,2008-11-03T10:00:00Z,28.9818,-94.9186,1020.67,11111222 
TABS,ioos:station:wmo:42043:1,2008-11-03T10:30:00Z,28.9818,-94.9186,1020.62,11111222 
TABS,ioos:station:wmo:42043:1,2008-11-03T11:00:00Z,28.9818,-94.9186,1020.44,11111222 
TABS,ioos:station:wmo:42043:1,2008-11-03T11:30:00Z,28.9818,-94.9186,1020.71,11111222 
TABS,ioos:station:wmo:42043:1,2008-11-03T12:00:00Z,28.9818,-94.9186,1020.84,11111222 
TABS,ioos:station:wmo:42043:1,2008-11-03T12:30:00Z,28.9818,-94.9186,1021.01,11111222 
TABS,ioos:station:wmo:42043:1,2008-11-03T13:00:00Z,28.9818,-94.9186,1021.21,11111222 
TABS,ioos:station:wmo:42043:1,2008-11-03T13:30:00Z,28.9818,-94.9186,1021.46,11111222 
TABS,ioos:station:wmo:42043:1,2008-11-03T14:00:00Z,28.9818,-94.9186,1021.61,11111222 
TABS,ioos:station:wmo:42043:1,2008-11-03T14:30:00Z,28.9818,-94.9186,1021.59,11111222 
TABS,ioos:station:wmo:42043:1,2008-11-03T15:00:00Z,28.9818,-94.9186,1021.88,11111222 
TABS,ioos:station:wmo:42043:1,2008-11-03T15:30:00Z,28.9818,-94.9186,1021.81,11111222 
TABS,ioos:station:wmo:42043:1,2008-11-03T16:00:00Z,28.9818,-94.9186,1021.98,11111222 
TABS,ioos:station:wmo:42043:1,2008-11-03T16:30:00Z,28.9818,-94.9186,1022.0,11111222 
TABS,ioos:station:wmo:42043:1,2008-11-03T17:00:00Z,28.9818,-94.9186,1022.0,11111222 
TABS,ioos:station:wmo:42043:1,2008-11-03T17:30:00Z,28.9818,-94.9186,1021.72,11111222 
TABS,ioos:station:wmo:42043:1,2008-11-03T18:00:00Z,28.9818,-94.9186,1020.99,11111222 
TABS,ioos:station:wmo:42043:1,2008-11-03T18:30:00Z,28.9818,-94.9186,1020.67,11111222 
TABS,ioos:station:wmo:42043:1,2008-11-03T19:00:00Z,28.9818,-94.9186,1020.31,11111222 
TABS,ioos:station:wmo:42043:1,2008-11-03T19:30:00Z,28.9818,-94.9186,1020.03,11111222 
TABS,ioos:station:wmo:42043:1,2008-11-03T20:00:00Z,28.9818,-94.9186,1019.77,11111222 
TABS,ioos:station:wmo:42043:1,2008-11-03T20:30:00Z,28.9818,-94.9186,1019.7,11111222 
TABS,ioos:station:wmo:42043:1,2008-11-03T21:00:00Z,28.9818,-94.9186,1019.4,11111222 
TABS,ioos:station:wmo:42043:1,2008-11-03T21:30:00Z,28.9818,-94.9186,1019.6,11111222 
TABS,ioos:station:wmo:42043:1,2008-11-03T22:00:00Z,28.9818,-94.9186,1019.47,11111222 
TABS,ioos:station:wmo:42043:1,2008-11-03T22:30:00Z,28.9818,-94.9186,1019.46,11111222 
TABS,ioos:station:wmo:42043:1,2008-11-03T23:00:00Z,28.9818,-94.9186,1019.57,11111222 
TABS,ioos:station:wmo:42043:1,2008-11-03T23:30:00Z,28.9818,-94.9186,1019.65,11111222 
TABS,ioos:station:wmo:42043:1,2008-11-04T00:00:00Z,28.9818,-94.9186,1019.59,11111222 
TABS,ioos:station:wmo:42043:1,2008-11-04T00:30:00Z,28.9818,-94.9186,1019.79,11111222 
TABS,ioos:station:wmo:42043:1,2008-11-04T01:00:00Z,28.9818,-94.9186,1020.01,11111222 
TABS,ioos:station:wmo:42043:1,2008-11-04T01:30:00Z,28.9818,-94.9186,1019.78,11111222 
TABS,ioos:station:wmo:42043:1,2008-11-04T02:00:00Z,28.9818,-94.9186,1019.9,11111222 
TABS,ioos:station:wmo:42043:1,2008-11-04T02:30:00Z,28.9818,-94.9186,1019.82,11111222 
TABS,ioos:station:wmo:42043:1,2008-11-04T03:00:00Z,28.9818,-94.9186,1019.87,11111222 
TABS,ioos:station:wmo:42043:1,2008-11-04T03:30:00Z,28.9818,-94.9186,1020.04,11111222 
TABS,ioos:station:wmo:42043:1,2008-11-04T04:00:00Z,28.9818,-94.9186,1020.05,11111222 
TABS,ioos:station:wmo:42043:1,2008-11-04T04:30:00Z,28.9818,-94.9186,1019.89,11111222 
TABS,ioos:station:wmo:42043:1,2008-11-04T05:00:00Z,28.9818,-94.9186,1019.85,11111222 
TABS,ioos:station:wmo:42043:1,2008-11-04T05:30:00Z,28.9818,-94.9186,1019.68,11111222 
TABS,ioos:station:wmo:42043:1,2008-11-04T06:00:00Z,28.9818,-94.9186,1019.52,11111222 
TABS,ioos:station:wmo:42043:1,2008-11-04T06:30:00Z,28.9818,-94.9186,1019.52,11111222 
TABS,ioos:station:wmo:42043:1,2008-11-04T07:00:00Z,28.9818,-94.9186,1019.4,11111222 
TABS,ioos:station:wmo:42043:1,2008-11-04T07:30:00Z,28.9818,-94.9186,1019.33,11111222 
TABS,ioos:station:wmo:42043:1,2008-11-04T08:00:00Z,28.9818,-94.9186,1019.16,11111222 
TABS,ioos:station:wmo:42043:1,2008-11-04T08:30:00Z,28.9818,-94.9186,1018.85,11111222 
TABS,ioos:station:wmo:42043:1,2008-11-04T09:00:00Z,28.9818,-94.9186,1018.75,11111222 
TABS,ioos:station:wmo:42043:1,2008-11-04T09:30:00Z,28.9818,-94.9186,1018.57,11111222 
TABS,ioos:station:wmo:42043:1,2008-11-04T10:00:00Z,28.9818,-94.9186,1018.69,11111222 
TABS,ioos:station:wmo:42043:1,2008-11-04T10:30:00Z,28.9818,-94.9186,1018.91,11111222 
TABS,ioos:station:wmo:42043:1,2008-11-04T11:00:00Z,28.9818,-94.9186,1018.94,11111222 
TABS,ioos:station:wmo:42043:1,2008-11-04T11:30:00Z,28.9818,-94.9186,1019.09,11111222 
TABS,ioos:station:wmo:42043:1,2008-11-04T12:00:00Z,28.9818,-94.9186,1019.08,11111222 
TABS,ioos:station:wmo:42043:1,2008-11-04T12:30:00Z,28.9818,-94.9186,1019.12,11111222 
TABS,ioos:station:wmo:42043:1,2008-11-04T13:00:00Z,28.9818,-94.9186,1019.31,11111222 
TABS,ioos:station:wmo:42043:1,2008-11-04T13:30:00Z,28.9818,-94.9186,1019.39,11111222 
TABS,ioos:station:wmo:42043:1,2008-11-04T14:00:00Z,28.9818,-94.9186,1019.6,11111222 
TABS,ioos:station:wmo:42043:1,2008-11-04T14:30:00Z,28.9818,-94.9186,1019.78,11111222 
TABS,ioos:station:wmo:42043:1,2008-11-04T15:00:00Z,28.9818,-94.9186,1019.98,11111222 
TABS,ioos:station:wmo:42043:1,2008-11-04T15:30:00Z,28.9818,-94.9186,1020.14,11111222 
TABS,ioos:station:wmo:42043:1,2008-11-04T16:00:00Z,28.9818,-94.9186,1020.14,11111222 
TABS,ioos:station:wmo:42043:1,2008-11-04T16:30:00Z,28.9818,-94.9186,1020.04,11111222 
TABS,ioos:station:wmo:42043:1,2008-11-04T17:00:00Z,28.9818,-94.9186,1019.8,11111222 
TABS,ioos:station:wmo:42043:1,2008-11-04T17:30:00Z,28.9818,-94.9186,1019.33,11111222 
TABS,ioos:station:wmo:42043:1,2008-11-04T18:00:00Z,28.9818,-94.9186,1018.88,11111222 
TABS,ioos:station:wmo:42043:1,2008-11-04T18:30:00Z,28.9818,-94.9186,1018.42,11111222 
TABS,ioos:station:wmo:42043:1,2008-11-04T19:00:00Z,28.9818,-94.9186,1018.09,11111222 
TABS,ioos:station:wmo:42043:1,2008-11-04T19:30:00Z,28.9818,-94.9186,1017.76,11111222 
TABS,ioos:station:wmo:42043:1,2008-11-04T20:00:00Z,28.9818,-94.9186,1017.61,11111222 
TABS,ioos:station:wmo:42043:1,2008-11-04T20:30:00Z,28.9818,-94.9186,1017.33,11111222 
TABS,ioos:station:wmo:42043:1,2008-11-04T21:00:00Z,28.9818,-94.9186,1017.08,11111222 
TABS,ioos:station:wmo:42043:1,2008-11-04T21:30:00Z,28.9818,-94.9186,1017.03,11111222 
TABS,ioos:station:wmo:42043:1,2008-11-04T22:00:00Z,28.9818,-94.9186,1017.01,11111222 
TABS,ioos:station:wmo:42043:1,2008-11-04T22:30:00Z,28.9818,-94.9186,1017.05,11111222 
TABS,ioos:station:wmo:42043:1,2008-11-04T23:00:00Z,28.9818,-94.9186,1017.09,11111222 
TABS,ioos:station:wmo:42043:1,2008-11-04T23:30:00Z,28.9818,-94.9186,1016.99,11111222 
TABS,ioos:station:wmo:42043:1,2008-11-05T00:00:00Z,28.9818,-94.9186,1016.91,11111222 
TABS,ioos:station:wmo:42043:1,2008-11-05T00:30:00Z,28.9818,-94.9186,1016.93,11111222 
TABS,ioos:station:wmo:42043:1,2008-11-05T01:00:00Z,28.9818,-94.9186,1016.91,11111222 
TABS,ioos:station:wmo:42043:1,2008-11-05T01:30:00Z,28.9818,-94.9186,1016.89,11111222 
TABS,ioos:station:wmo:42043:1,2008-11-05T02:00:00Z,28.9818,-94.9186,1016.97,11111222 
TABS,ioos:station:wmo:42043:1,2008-11-05T02:30:00Z,28.9818,-94.9186,1017.2,11111222 
TABS,ioos:station:wmo:42043:1,2008-11-05T03:00:00Z,28.9818,-94.9186,1017.05,11111222 
TABS,ioos:station:wmo:42043:1,2008-11-05T03:30:00Z,28.9818,-94.9186,1017.11,11111222 
TABS,ioos:station:wmo:42043:1,2008-11-05T04:00:00Z,28.9818,-94.9186,1016.93,11111222 
TABS,ioos:station:wmo:42043:1,2008-11-05T04:30:00Z,28.9818,-94.9186,1016.61,11111222 
TABS,ioos:station:wmo:42043:1,2008-11-05T05:00:00Z,28.9818,-94.9186,1016.55,11111222 
TABS,ioos:station:wmo:42043:1,2008-11-05T05:30:00Z,28.9818,-94.9186,1016.28,11111222 
TABS,ioos:station:wmo:42043:1,2008-11-05T06:00:00Z,28.9818,-94.9186,1016.29,11111222 
TABS,ioos:station:wmo:42043:1,2008-11-05T06:30:00Z,28.9818,-94.9186,1015.99,11111222 
TABS,ioos:station:wmo:42043:1,2008-11-05T07:00:00Z,28.9818,-94.9186,1015.62,11111222 
TABS,ioos:station:wmo:42043:1,2008-11-05T07:30:00Z,28.9818,-94.9186,1015.42,11111222 
TABS,ioos:station:wmo:42043:1,2008-11-05T08:00:00Z,28.9818,-94.9186,1015.16,11111222 
TABS,ioos:station:wmo:42043:1,2008-11-05T08:30:00Z,28.9818,-94.9186,1015.05,11111222 
TABS,ioos:station:wmo:42043:1,2008-11-05T09:00:00Z,28.9818,-94.9186,1014.88,11111222 
TABS,ioos:station:wmo:42043:1,2008-11-05T09:30:00Z,28.9818,-94.9186,1014.59,11111222 
TABS,ioos:station:wmo:42043:1,2008-11-05T10:00:00Z,28.9818,-94.9186,1014.47,11111222 
TABS,ioos:station:wmo:42043:1,2008-11-05T10:30:00Z,28.9818,-94.9186,1014.48,11111222 
TABS,ioos:station:wmo:42043:1,2008-11-05T11:00:00Z,28.9818,-94.9186,1014.51,11111222 
TABS,ioos:station:wmo:42043:1,2008-11-05T11:30:00Z,28.9818,-94.9186,1014.37,11111222 
TABS,ioos:station:wmo:42043:1,2008-11-05T12:00:00Z,28.9818,-94.9186,1014.37,11111222 
TABS,ioos:station:wmo:42043:1,2008-11-05T12:30:00Z,28.9818,-94.9186,1014.66,11111222 
TABS,ioos:station:wmo:42043:1,2008-11-05T13:00:00Z,28.9818,-94.9186,1014.86,11111222 
TABS,ioos:station:wmo:42043:1,2008-11-05T13:30:00Z,28.9818,-94.9186,1015.21,11111222 
TABS,ioos:station:wmo:42043:1,2008-11-05T14:00:00Z,28.9818,-94.9186,1015.4,11111222 
TABS,ioos:station:wmo:42043:1,2008-11-05T14:30:00Z,28.9818,-94.9186,1015.49,11111222 
TABS,ioos:station:wmo:42043:1,2008-11-05T15:00:00Z,28.9818,-94.9186,1015.76,11111222 
TABS,ioos:station:wmo:42043:1,2008-11-05T15:30:00Z,28.9818,-94.9186,1015.87,11111222 
TABS,ioos:station:wmo:42043:1,2008-11-05T16:00:00Z,28.9818,-94.9186,1015.93,11111222 
TABS,ioos:station:wmo:42043:1,2008-11-05T16:30:00Z,28.9818,-94.9186,1015.82,11111222 
TABS,ioos:station:wmo:42043:1,2008-11-05T17:00:00Z,28.9818,-94.9186,1015.54,11111222 
TABS,ioos:station:wmo:42043:1,2008-11-05T17:30:00Z,28.9818,-94.9186,1015.23,11111222 
TABS,ioos:station:wmo:42043:1,2008-11-05T18:00:00Z,28.9818,-94.9186,1014.51,11111222 
TABS,ioos:station:wmo:42043:1,2008-11-05T18:30:00Z,28.9818,-94.9186,1014.31,11111222 
TABS,ioos:station:wmo:42043:1,2008-11-05T19:00:00Z,28.9818,-94.9186,1013.69,11111222 
TABS,ioos:station:wmo:42043:1,2008-11-05T19:30:00Z,28.9818,-94.9186,1013.42,11111222 
TABS,ioos:station:wmo:42043:1,2008-11-05T20:00:00Z,28.9818,-94.9186,1013.23,11111222 
TABS,ioos:station:wmo:42043:1,2008-11-05T20:30:00Z,28.9818,-94.9186,1013.07,11111222 
TABS,ioos:station:wmo:42043:1,2008-11-05T21:00:00Z,28.9818,-94.9186,1012.77,11111222 
TABS,ioos:station:wmo:42043:1,2008-11-05T21:30:00Z,28.9818,-94.9186,1013.03,11111222 
TABS,ioos:station:wmo:42043:1,2008-11-05T22:00:00Z,28.9818,-94.9186,1012.6,11111222 
TABS,ioos:station:wmo:42043:1,2008-11-05T22:30:00Z,28.9818,-94.9186,1012.54,11111222 
TABS,ioos:station:wmo:42043:1,2008-11-05T23:00:00Z,28.9818,-94.9186,1012.51,11111222 
TABS,ioos:station:wmo:42043:1,2008-11-05T23:30:00Z,28.9818,-94.9186,1012.28,11111222 
TABS,ioos:station:wmo:42043:1,2008-11-06T00:00:00Z,28.9818,-94.9186,1012.48,11111222 
TABS,ioos:station:wmo:42043:1,2008-11-06T00:30:00Z,28.9818,-94.9186,1012.4,11111222 
TABS,ioos:station:wmo:42043:1,2008-11-06T01:00:00Z,28.9818,-94.9186,1012.38,11111222 
TABS,ioos:station:wmo:42043:1,2008-11-06T01:30:00Z,28.9818,-94.9186,1012.43,11111222 
TABS,ioos:station:wmo:42043:1,2008-11-06T02:00:00Z,28.9818,-94.9186,1012.13,11111222 
TABS,ioos:station:wmo:42043:1,2008-11-06T02:30:00Z,28.9818,-94.9186,1012.37,11111222 
TABS,ioos:station:wmo:42043:1,2008-11-06T03:00:00Z,28.9818,-94.9186,1011.99,11111222 
TABS,ioos:station:wmo:42043:1,2008-11-06T03:30:00Z,28.9818,-94.9186,1012.12,11111222 
TABS,ioos:station:wmo:42043:1,2008-11-06T04:00:00Z,28.9818,-94.9186,1012.07,11111222 
TABS,ioos:station:wmo:42043:1,2008-11-06T04:30:00Z,28.9818,-94.9186,1012.1,11111222 
TABS,ioos:station:wmo:42043:1,2008-11-06T05:00:00Z,28.9818,-94.9186,1011.88,11111222 
TABS,ioos:station:wmo:42043:1,2008-11-06T05:30:00Z,28.9818,-94.9186,1012.03,11111222 
TABS,ioos:station:wmo:42043:1,2008-11-06T06:00:00Z,28.9818,-94.9186,1011.91,11111222 
TABS,ioos:station:wmo:42043:1,2008-11-06T06:30:00Z,28.9818,-94.9186,1012.11,11111222 
TABS,ioos:station:wmo:42043:1,2008-11-06T07:00:00Z,28.9818,-94.9186,1011.91,11111222 
TABS,ioos:station:wmo:42043:1,2008-11-06T07:30:00Z,28.9818,-94.9186,1011.84,11111222 
TABS,ioos:station:wmo:42043:1,2008-11-06T08:00:00Z,28.9818,-94.9186,1011.68,11111222 
TABS,ioos:station:wmo:42043:1,2008-11-06T08:30:00Z,28.9818,-94.9186,1011.71,11111222 
TABS,ioos:station:wmo:42043:1,2008-11-06T09:00:00Z,28.9818,-94.9186,1011.69,11111222 
TABS,ioos:station:wmo:42043:1,2008-11-06T09:30:00Z,28.9818,-94.9186,1011.7,11111222 
TABS,ioos:station:wmo:42043:1,2008-11-06T10:00:00Z,28.9818,-94.9186,1011.86,11111222 
TABS,ioos:station:wmo:42043:1,2008-11-06T10:30:00Z,28.9818,-94.9186,1012.36,11111222 
TABS,ioos:station:wmo:42043:1,2008-11-06T11:00:00Z,28.9818,-94.9186,1012.48,11111222 
TABS,ioos:station:wmo:42043:1,2008-11-06T11:30:00Z,28.9818,-94.9186,1012.67,11111222 
TABS,ioos:station:wmo:42043:1,2008-11-06T12:00:00Z,28.9818,-94.9186,1012.95,11111222 
TABS,ioos:station:wmo:42043:1,2008-11-06T12:30:00Z,28.9818,-94.9186,1012.97,11111222 
TABS,ioos:station:wmo:42043:1,2008-11-06T13:00:00Z,28.9818,-94.9186,1013.3,11111222 
TABS,ioos:station:wmo:42043:1,2008-11-06T13:30:00Z,28.9818,-94.9186,1013.77,11111222 
TABS,ioos:station:wmo:42043:1,2008-11-06T14:00:00Z,28.9818,-94.9186,1014.56,11111222 
TABS,ioos:station:wmo:42043:1,2008-11-06T14:30:00Z,28.9818,-94.9186,1014.75,11111222 
TABS,ioos:station:wmo:42043:1,2008-11-06T15:00:00Z,28.9818,-94.9186,1015.53,11111222 
TABS,ioos:station:wmo:42043:1,2008-11-06T15:30:00Z,28.9818,-94.9186,1015.77,11111222 
TABS,ioos:station:wmo:42043:1,2008-11-06T16:00:00Z,28.9818,-94.9186,1015.66,11111222 
TABS,ioos:station:wmo:42043:1,2008-11-06T16:30:00Z,28.9818,-94.9186,1015.37,11111222 
TABS,ioos:station:wmo:42043:1,2008-11-06T17:00:00Z,28.9818,-94.9186,1015.28,11111222 
TABS,ioos:station:wmo:42043:1,2008-11-06T17:30:00Z,28.9818,-94.9186,1014.71,11111222 
TABS,ioos:station:wmo:42043:1,2008-11-06T18:00:00Z,28.9818,-94.9186,1014.38,11111222 
TABS,ioos:station:wmo:42043:1,2008-11-06T18:30:00Z,28.9818,-94.9186,1013.98,11111222 